Location: ???????
(55.4231°N, 38.5570°E)
Time: 14:40:12
(UTC+00:00)

CZ-2C R/B - Pass Details

Date: 05 August 2024
Orbit: 782 x 869 km, 98.3° (Epoch: 18 September)

Event Time Altitude Azimuth Distance (km) Brightness Sun altitude
Exits shadow 00:44:32 - 226° (SW) 2,625 4.6 -7.1°
Reaches altitude 10° 00:45:00 10° 229° (SW) 2,501 4.5 -7.0°
Maximum altitude 00:48:52 19° 274° (W) 1,929 4.2 -6.6°
Drops below altitude 10° 00:52:44 10° 319° (NW) 2,483 5.2 -6.2°
Sets 00:55:50 0° 337° (NNW) 3,407 6.1 -5.9°
